DW1482 Weather Reports


Display with metric or nautical units.
time (UTC)temp
F
wind
direction
speed
MPH
gust
MPH
rain 1hr
in
rain 24hr
in
rain mn
in
humidity
%
barometer
mb
20260905170018 84 238 1.0 7.0 0.00 0.03 0.03 56 1013.2
20260905164503 84 252 2.0 8.0 0.00 0.03 0.03 55 1013.3
20260905163004 84 138 2.0 9.0 0.00 0.03 0.03 57 1013.3
20260905161514 83 140 1.0 8.0 0.00 0.03 0.03 60 1013.5
20260905160023 83 148 3.0 10.0 0.00 0.03 0.03 64 1013.7
20260905154528 82 118 1.0 7.0 0.00 0.03 0.03 65 1013.7
20260905153014 81 133 1.0 5.0 0.00 0.03 0.03 67 1013.7
20260905151515 80 121 1.0 6.0 0.00 0.03 0.03 67 1013.6
20260905150025 80 121 1.0 8.0 0.00 0.03 0.03 68 1013.6
20260905144535 79 142 0.0 6.0 0.00 0.03 0.03 70 1013.5
20260905143009 77 129 0.0 6.0 0.00 0.03 0.03 75 1013.4
20260905141516 76 115 0.0 4.0 0.00 0.03 0.03 76 1013.4
20260905140026 74 139 0.0 4.0 0.00 0.03 0.03 78 1013.2
20260905134537 72 246 3.0 10.0 0.00 0.03 0.03 79 1012.6
20260905133013 72 203 2.0 9.0 0.00 0.03 0.03 80 1012.7
20260905131519 72 242 5.0 12.0 0.00 0.03 0.03 80 1012.5
20260905130028 72 249 5.0 14.0 0.00 0.03 0.03 80 1012.4
20260905124528 72 247 7.0 14.0 0.00 0.03 0.03 82 1012.3
20260905123042 72 215 3.0 15.0 0.00 0.03 0.03 83 1011.9
20260905121519 73 263 8.0 20.0 0.00 0.03 0.03 82 1011.7
20260905120029 73 252 8.0 20.0 0.01 0.03 0.03 84 1011.8
20260905114531 72 213 8.0 15.0 0.01 0.03 0.03 87 1011.3
20260905113019 73 223 8.0 21.0 0.01 0.03 0.03 88 1012.0
20260905111526 73 257 11.0 19.0 0.01 0.03 0.03 89 1012.4
20260905110033 72 221 2.0 8.0 0.00 0.02 0.02 91 1011.8
20260905104530 71 103 0.0 3.0 0.00 0.02 0.02 91 1013.2
20260905103023 71 54 0.0 5.0 0.00 0.02 0.02 90 1013.7
20260905101526 71 29 0.0 6.0 0.01 0.02 0.02 90 1013.7
20260905100006 72 133 0.0 0.0 0.01 0.02 0.02 90 1012.9
20260905094517 72 133 0.0 0.0 0.01 0.02 0.02 89 1012.5
20260905093017 71 121 0.0 2.0 0.02 0.02 0.02 90 1012.1
20260905091531 71 124 0.0 0.0 0.01 0.01 0.01 89 1012.6
20260905090008 71 124 0.0 0.0 0.01 0.01 0.01 88 1012.0
20260905084514 72 124 0.0 3.0 0.01 0.01 0.01 87 1011.5
20260905083018 72 140 0.0 2.0 0.00 0.00 0.00 86 1011.7
20260905081528 72 140 0.0 0.0 0.00 0.00 0.00 85 1011.8
20260905080023 72 140 0.0 0.0 0.00 0.00 0.00 85 1012.0
20260905074516 72 140 0.0 3.0 0.00 0.00 0.00 85 1011.8
20260905073026 72 140 0.0 2.0 0.00 0.00 0.00 84 1012.0
20260905071531 72 140 0.0 3.0 0.00 0.00 0.00 83 1012.1
20260905070012 73 136 1.0 3.0 0.00 0.00 0.00 82 1011.6
20260905064518 73 98 0.0 1.0 0.00 0.00 0.00 81 1011.7
20260905063026 73 94 0.0 0.0 0.00 0.00 0.00 80 1012.3
20260905061528 73 77 0.0 3.0 0.00 0.00 0.00 80 1012.8
20260905060044 74 77 0.0 2.0 0.00 0.00 0.00 79 1012.8
20260905054523 74 77 0.0 2.0 0.00 0.00 0.00 79 1013.0
20260905053025 74 85 1.0 3.0 0.00 0.00 0.00 79 1012.7
20260905051530 74 99 0.0 0.0 0.00 0.00 0.00 78 1012.7
20260905050030 74 101 0.0 4.0 0.00 0.00 0.00 77 1012.5
20260905044532 75 138 0.0 4.0 0.00 0.00 0.00 77 1012.9
20260905043029 75 96 0.0 3.0 0.00 0.00 0.00 77 1012.8
20260905041531 75 80 0.0 5.0 0.00 0.00 0.00 77 1012.5
20260905040041 76 59 1.0 9.0 0.00 0.00 0.00 76 1012.7
20260905034522 76 115 0.0 1.0 0.00 0.00 0.00 75 1013.0
20260905033004 76 90 1.0 13.0 0.00 0.00 0.00 74 1012.4
20260905031509 76 129 0.0 9.0 0.00 0.00 0.00 74 1012.3
20260905030018 76 68 0.0 11.0 0.00 0.00 0.00 74 1012.3
20260905024524 77 103 0.0 8.0 0.00 0.00 0.00 72 1012.5
20260905023003 77 78 0.0 8.0 0.00 0.00 0.00 71 1012.7
20260905021517 77 120 1.0 9.0 0.00 0.00 0.00 70 1012.5
20260905020016 78 109 3.0 10.0 0.00 0.00 0.00 69 1012.3
20260905014525 78 65 1.0 4.0 0.00 0.00 0.00 69 1012.3
20260905013030 78 138 0.0 7.0 0.00 0.00 0.00 68 1011.8
20260905011511 79 140 2.0 9.0 0.00 0.00 0.00 66 1011.3
20260905010023 80 141 2.0 9.0 0.00 0.00 0.00 65 1011.6
20260905004533 80 42 1.0 9.0 0.00 0.00 0.00 62 1011.6
20260905003040 80 90 4.0 10.0 0.00 0.00 0.00 64 1010.9
20260905001513 80 100 4.0 11.0 0.00 0.00 0.00 66 1010.5
20260905000022 81 90 3.0 9.0 0.00 0.00 0.00 64 1010.9
20260904234530 81 142 0.0 9.0 0.00 0.00 0.00 63 1011.6
20260904233049 81 141 1.0 8.0 0.00 0.00 0.00 63 1010.9
20260904231520 82 141 2.0 9.0 0.00 0.00 0.00 58 1011.2
20260904230037 83 148 3.0 12.0 0.00 0.00 0.00 56 1011.2
20260904224526 84 114 3.0 10.0 0.00 0.00 0.00 57 1011.1
20260904223036 85 58 3.0 8.0 0.00 0.00 0.00 54 1012.3
20260904221516 87 124 2.0 9.0 0.00 0.00 0.00 53 1012.0
20260904220026 87 166 4.0 12.0 0.00 0.00 0.00 53 1011.4
20260904214530 86 97 4.0 9.0 0.00 0.00 0.00 52 1011.6
20260904213030 87 121 2.0 10.0 0.00 0.00 0.00 54 1012.1
20260904211536 88 112 5.0 16.0 0.00 0.00 0.00 51 1011.8
20260904210028 88 69 6.0 14.0 0.00 0.00 0.00 48 1011.5
20260904204532 87 163 8.0 16.0 0.00 0.00 0.00 54 1011.3
20260904203040 87 55 7.0 15.0 0.00 0.00 0.00 59 1011.7
20260904201537 86 107 3.0 11.0 0.00 0.00 0.00 62 1012.2
20260904200031 86 78 3.0 12.0 0.00 0.00 0.00 63 1012.5
20260904194531 86 98 2.0 6.0 0.00 0.00 0.00 63 1012.7
20260904193035 85 109 2.0 7.0 0.00 0.00 0.00 65 1012.9
20260904191537 84 67 1.0 6.0 0.00 0.00 0.00 67 1013.2
20260904190030 83 119 2.0 7.0 0.00 0.00 0.00 67 1013.2
20260904184511 83 87 2.0 6.0 0.00 0.00 0.00 66 1013.1
20260904183014 82 115 1.0 7.0 0.00 0.00 0.00 69 1013.3
20260904181514 81 114 0.0 6.0 0.00 0.00 0.00 71 1013.3
20260904180016 80 80 0.0 9.0 0.00 0.00 0.00 74 1013.2
20260904174519 78 132 2.0 8.0 0.00 0.00 0.00 74 1013.2
20260904173020 77 101 2.0 7.0 0.00 0.00 0.00 74 1013.2
20260904171530 76 30 2.0 8.0 0.00 0.00 0.00 76 1013.1